Temp
62 62 62 62 62 62 62 62 62 62 62 62 62 62 62 62 61 55 49 57 60 66 66 64 63 61 61 58 59 57 46 44 51 52 55 64 59 64 66 64 64 65 62 65 68
61 61 61 61 61 62 61 62 61 61 62 62 62 62 61 61 53 50 60 64 66 67 59 58 57 59 55 54 55 51 42 48 58 59 57 60 61 62 61 60 56 58 63 69 67
61 61 61 61 61 61 61 61 61 61 61 61 61 61 61 58 46 49 67 67 66 65 60 59 59 57 53 53 53 51 45 53 59 61 59 59 60 62 59 57 60 60 61 66 66
60 60 60 60 60 60 60 61 61 61 62 61 61 61 60 53 35 57 66 66 66 62 58 54 54 51 52 50 53 49 54 57 60 59 58 56 61 60 60 64 67 65 66 66 65
60 59 59 59 59 60 60 61 61 61 60 61 61 61 53 43 43 59 64 63 61 58 54 51 48 50 48 54 55 51 53 58 61 58 56 59 56 57 61 65 64 65 65 65 65
59 59 59 59 59 60 60 60 60 60 60 60 61 61 50 38 56 60 58 57 57 55 52 52 49 52 49 51 52 54 54 55 58 56 56 54 56 57 62 60 60 61 62 64 64
59 59 58 59 59 59 59 59 60 60 60 60 61 56 47 45 57 57 56 54 55 54 50 53 53 48 50 50 55 55 48 54 56 55 54 56 53 53 63 60 58 59 61 63 64
58 58 58 58 58 59 59 59 59 59 59 60 60 50 42 56 56 56 56 53 55 55 53 54 54 49 49 51 49 48 50 43 53 55 55 55 46 56 60 57 56 57 58 61 63
57 57 58 58 58 58 58 58 58 59 59 60 53 48 42 57 49 54 53 49 52 53 52 58 51 45 47 41 39 45 40 43 50 55 55 53 46 59 61 57 55 55 56 60 61
57 57 58 58 57 57 58 58 58 57 56 55 52 42 46 44 50 53 54 52 47 47 46 45 43 38 40 38 31 38 40 45 45 52 53 50 50 56 57 57 56 55 56 58 60
57 57 57 57 57 58 53 47 43 41 46 42 42 42 46 51 54 50 55 50 49 45 37 41 36 32 36 41 42 43 45 45 49 55 50 49 50 54 58 56 55 54 55 56 58
57 57 57 57 57 57 50 43 44 47 38 46 46 46 50 52 42 48 54 43 41 36 40 35 31 40 44 44 43 39 38 43 48 54 51 51 51 56 58 58 59 57 56 57 58
56 56 57 57 57 53 46 47 52 48 36 40 43 43 47 49 42 43 48 45 39 36 36 32 38 45 42 41 40 39 37 43 44 48 50 47 46 49 55 57 60 61 62 61 59
56 56 56 57 50 47 44 51 49 50 32 33 39 44 47 46 40 50 51 46 40 36 37 36 42 41 39 38 42 35 45 48 46 43 37 47 35 46 52 52 55 58 60 61 60
56 56 56 56 46 48 48 50 47 46 14 36 39 49 47 41 43 44 50 45 35 37 34 32 35 36 34 38 44 38 47 47 47 43 41 41 38 46 54 51 55 57 59 61 62
55 55 55 49 46 49 52 48 47 30 16 27 38 38 38 40 42 43 43 46 43 37 38 38 44 43 38 43 46 48 45 43 44 42 33 40 39 41 48 52 56 56 59 61 62
55 55 52 51 43 49 47 44 27 22 32 28 30 37 35 34 35 38 38 36 33 29 28 35 36 40 43 42 46 42 41 30 30 31 30 41 38 44 49 57 59 61 61 61 63
55 55 50 50 49 48 43 29 19 17 22 34 37 35 33 37 37 38 36 35 36 33 33 29 27 35 41 43 41 39 42 32 26 28 30 37 35 43 55 59 56 61 65 63 63
53 43 44 47 49 45 37 15 18 24 31 32 33 31 33 37 37 38 36 34 35 38 31 31 28 36 40 43 45 40 36 42 33 30 32 36 42 51 50 51 55 55 58 61 61
40 40 41 48 46 42 26 25 23 36 36 35 28 31 30 33 35 35 35 39 39 42 43 36 29 32 37 42 43 42 45 34 34 27 25 29 33 37 44 47 52 51 53 58 57
39 32 44 47 43 32 18 19 29 40 39 33 31 30 32 33 35 35 35 39 41 41 43 40 36 31 36 33 35 37 36 37 38 34 28 27 32 41 43 45 43 47 53 56 59
35 22 43 44 27 31 17 27 39 40 40 37 35 34 32 34 33 34 34 37 43 43 37 39 35 30 31 33 37 37 38 39 35 30 31 31 33 44 42 44 44 45 50 53 52
31 28 42 41 17 19 31 31 36 35 36 37 34 38 37 33 31 35 36 41 43 41 37 40 33 27 29 33 34 32 35 40 39 36 31 31 34 46 43 43 44 44 46 48 49
27 22 28 31 29 25 27 23 28 38 39 38 38 40 35 32 35 33 34 39 41 40 42 42 34 31 28 31 35 32 33 36 36 32 32 34 37 40 43 43 46 46 45 46 48
29 19 20 18 21 27 30 30 30 25 35 40 35 35 34 30 31 32 35 37 41 40 39 37 30 32 33 35 35 35 34 34 33 36 33 37 37 39 43 45 46 46 47 46 47
25 23 31 15 29 28 30 23 28 32 33 34 34 36 33 32 32 30 34 34 34 39 36 38 31 32 27 33 34 32 36 37 37 37 37 38 38 46 47 48 48 48 48 48 48
32 33 31 25 27 25 20 29 31 32 35 39 37 36 31 32 35 37 38 38 39 36 35 35 32 28 22 30 31 28 32 36 37 39 39 34 40 47 47 46 45 46 45 44 45
MSLP
1021.63 1021.41 1021.20 1021.02 1020.79 1020.61 1020.50 1020.29 1020.20 1020.03 1019.73 1019.59 1019.49 1019.34 1019.31 1019.08 1018.84 1018.81 1018.24 1017.48 1017.20 1017.04 1016.88 1016.83 1016.56 1016.49 1016.16 1015.92 1015.73 1015.93 1016.49 1015.79 1014.67 1013.91 1012.99 1011.77 1011.75 1011.15 1011.13 1011.88 1012.50 1012.94 1013.21 1013.27 1015.06
1021.49 1021.21 1021.04 1020.91 1020.74 1020.53 1020.37 1020.18 1020.07 1019.89 1019.64 1019.48 1019.42 1019.23 1019.19 1019.05 1018.90 1018.01 1016.94 1016.60 1016.72 1016.82 1017.19 1017.05 1016.71 1016.67 1016.61 1016.36 1015.89 1015.81 1015.89 1014.97 1014.08 1013.36 1012.91 1012.37 1012.14 1011.86 1011.69 1012.06 1012.81 1013.11 1013.30 1013.50 1014.91
1021.17 1021.01 1020.89 1020.69 1020.58 1020.42 1020.24 1020.00 1019.90 1019.71 1019.46 1019.28 1019.17 1019.10 1019.11 1018.98 1018.67 1016.98 1015.87 1015.47 1015.91 1016.55 1017.01 1017.18 1017.15 1016.92 1016.41 1016.31 1015.87 1015.36 1014.82 1014.45 1013.84 1013.54 1013.20 1012.75 1012.49 1012.31 1011.90 1012.13 1012.05 1012.36 1013.20 1013.90 1014.71
1020.85 1020.75 1020.60 1020.47 1020.32 1020.17 1019.92 1019.70 1019.52 1019.35 1019.09 1019.13 1018.98 1018.94 1018.95 1018.99 1018.34 1016.09 1015.87 1015.73 1016.05 1016.58 1017.19 1017.31 1017.26 1016.94 1016.08 1015.75 1015.41 1015.06 1014.53 1013.84 1013.65 1013.65 1013.50 1013.37 1013.02 1012.49 1012.27 1011.51 1011.26 1012.24 1012.47 1013.46 1014.35
1020.59 1020.50 1020.31 1020.13 1020.02 1019.84 1019.63 1019.36 1019.07 1018.97 1018.91 1018.81 1018.77 1018.79 1019.11 1019.02 1017.69 1016.23 1016.00 1016.12 1016.32 1016.53 1017.01 1017.52 1017.29 1017.27 1015.80 1015.18 1015.13 1014.54 1014.12 1014.00 1013.43 1013.66 1013.76 1013.70 1013.25 1013.16 1012.08 1011.65 1011.90 1012.41 1013.05 1013.28 1013.82
1020.26 1020.08 1019.86 1019.63 1019.55 1019.40 1019.20 1018.99 1018.73 1018.63 1018.61 1018.56 1018.55 1018.59 1018.79 1018.32 1016.64 1016.31 1016.23 1016.25 1016.37 1016.78 1017.01 1017.29 1017.50 1017.06 1016.36 1014.75 1014.09 1013.79 1014.05 1013.94 1013.45 1013.74 1013.94 1013.98 1013.08 1012.95 1011.92 1011.72 1012.33 1012.64 1013.16 1013.36 1013.68
1019.73 1019.42 1019.17 1019.00 1018.89 1018.88 1018.69 1018.55 1018.38 1018.25 1018.31 1018.32 1018.30 1018.50 1018.08 1016.80 1016.05 1016.06 1016.26 1016.24 1016.25 1016.34 1016.73 1017.03 1017.16 1017.59 1016.86 1015.37 1013.97 1013.75 1014.24 1013.95 1013.36 1013.55 1013.97 1013.62 1012.76 1012.51 1011.89 1012.27 1012.53 1012.81 1013.00 1013.34 1013.61
1019.23 1018.85 1018.38 1018.26 1018.25 1018.38 1018.22 1018.03 1017.83 1017.87 1017.94 1017.89 1017.96 1018.29 1017.06 1015.89 1015.69 1015.85 1016.01 1016.30 1016.28 1016.67 1016.80 1016.63 1016.84 1017.20 1016.77 1016.16 1014.31 1013.82 1013.79 1013.43 1012.17 1013.16 1013.54 1014.15 1012.16 1012.05 1011.91 1012.16 1012.74 1012.77 1013.09 1013.29 1013.52
1019.00 1018.39 1017.83 1017.65 1017.78 1017.94 1017.90 1017.61 1017.35 1017.45 1017.42 1017.40 1017.81 1017.96 1016.38 1015.61 1015.46 1014.94 1015.49 1015.81 1015.89 1016.09 1016.44 1016.63 1016.93 1016.78 1016.70 1016.43 1015.77 1013.30 1011.87 1011.32 1011.87 1011.70 1013.00 1013.09 1012.02 1011.30 1011.50 1012.04 1012.37 1012.71 1012.98 1012.93 1013.42
1018.87 1018.45 1017.90 1017.59 1017.71 1017.75 1017.67 1017.19 1016.78 1016.90 1017.06 1017.35 1017.56 1018.03 1016.05 1015.18 1015.02 1015.00 1014.79 1015.32 1015.87 1016.31 1016.57 1016.36 1016.69 1016.25 1015.69 1015.65 1013.84 1012.52 1011.25 1010.84 1010.32 1010.60 1011.45 1012.10 1011.53 1011.00 1011.20 1011.44 1011.73 1012.20 1012.65 1012.84 1012.90
1018.91 1018.64 1018.19 1017.85 1017.80 1017.71 1017.66 1017.25 1017.29 1017.41 1017.19 1016.51 1016.30 1015.59 1014.75 1014.65 1014.57 1014.49 1014.25 1014.81 1015.24 1015.92 1015.87 1015.91 1016.45 1015.30 1014.28 1014.21 1013.66 1012.43 1011.59 1010.94 1010.56 1010.77 1011.37 1011.24 1011.41 1010.89 1011.28 1011.07 1011.38 1011.81 1012.07 1012.18 1012.09
1018.76 1018.64 1018.27 1017.97 1017.81 1017.71 1017.83 1017.90 1017.89 1018.20 1016.99 1015.76 1015.22 1015.10 1014.81 1014.65 1014.21 1013.65 1014.01 1014.78 1014.71 1014.73 1015.52 1015.67 1014.26 1013.60 1014.03 1014.06 1013.87 1013.19 1012.29 1010.58 1010.86 1011.01 1011.16 1011.32 1010.70 1010.90 1010.77 1010.44 1010.36 1010.64 1011.16 1011.08 1011.72
1018.63 1018.43 1018.19 1017.88 1017.57 1017.61 1017.84 1017.96 1017.90 1018.13 1017.86 1015.33 1014.95 1014.68 1014.27 1014.19 1013.36 1012.64 1013.52 1013.54 1013.77 1014.25 1014.20 1013.60 1013.00 1013.40 1013.49 1013.20 1013.01 1012.55 1011.83 1010.77 1010.33 1010.85 1011.09 1011.29 1011.09 1010.40 1009.75 1009.69 1009.30 1009.37 1009.54 1010.09 1010.41
1018.55 1018.36 1018.11 1017.75 1017.64 1017.76 1017.88 1017.88 1017.94 1018.04 1017.69 1015.80 1014.92 1014.26 1013.96 1013.83 1012.92 1012.23 1012.58 1012.91 1013.09 1013.08 1013.79 1013.59 1013.02 1013.01 1013.11 1012.55 1012.70 1012.39 1011.73 1010.25 1010.30 1010.99 1011.02 1011.50 1009.77 1008.87 1008.88 1008.88 1008.17 1008.32 1008.49 1009.10 1009.60
1018.55 1018.29 1018.08 1017.72 1017.80 1017.74 1017.94 1017.67 1017.93 1018.11 1017.74 1015.54 1014.58 1013.86 1013.76 1014.02 1012.48 1012.00 1012.19 1012.67 1012.88 1012.32 1013.53 1012.60 1012.50 1012.49 1012.63 1011.40 1012.32 1012.09 1011.56 1010.26 1009.94 1010.45 1010.62 1010.67 1010.45 1006.73 1007.44 1007.29 1006.65 1007.09 1007.37 1007.82 1008.30
1018.24 1018.08 1017.98 1017.91 1018.09 1017.63 1017.38 1017.40 1018.00 1018.46 1017.15 1015.60 1014.60 1014.07 1013.86 1012.99 1012.07 1012.10 1012.17 1012.45 1012.57 1012.66 1012.44 1011.73 1011.85 1011.71 1011.08 1011.12 1011.85 1011.63 1010.11 1010.43 1010.46 1010.56 1010.07 1009.87 1009.28 1006.79 1005.62 1005.36 1005.83 1006.29 1006.40 1006.80 1007.38
1017.88 1017.69 1017.84 1017.90 1017.74 1017.49 1017.46 1017.86 1018.73 1018.54 1017.23 1016.40 1015.53 1014.70 1014.04 1012.83 1012.18 1011.77 1011.42 1011.56 1011.89 1011.94 1011.88 1011.53 1011.50 1011.57 1010.67 1010.09 1010.41 1011.22 1009.42 1009.76 1010.31 1009.88 1009.57 1009.07 1008.98 1005.34 1004.86 1004.51 1004.16 1004.56 1005.03 1005.74 1006.33
1017.54 1017.37 1017.37 1017.37 1017.27 1017.36 1017.77 1018.64 1019.40 1018.93 1017.94 1017.08 1016.09 1014.83 1013.69 1012.50 1011.59 1011.06 1010.83 1010.64 1010.75 1010.72 1010.87 1010.82 1011.11 1011.30 1009.55 1008.90 1008.55 1009.80 1008.52 1008.50 1009.08 1009.37 1009.45 1009.17 1007.01 1004.86 1004.77 1004.36 1004.14 1004.15 1004.05 1004.81 1005.16
1017.46 1017.52 1017.49 1017.29 1017.22 1017.41 1018.25 1019.16 1019.65 1019.39 1018.45 1017.58 1016.31 1015.23 1013.55 1012.44 1011.76 1010.83 1010.47 1010.06 1009.93 1009.76 1009.30 1009.37 1009.83 1009.56 1008.96 1008.14 1008.66 1008.51 1008.68 1008.83 1009.07 1009.67 1009.54 1008.41 1007.11 1005.63 1004.63 1004.49 1004.30 1004.15 1003.71 1004.28 1004.50
1017.92 1017.96 1017.64 1017.23 1017.18 1017.82 1018.83 1019.61 1019.47 1018.73 1018.06 1017.67 1017.01 1015.93 1014.56 1013.02 1011.99 1011.07 1010.53 1010.05 1009.49 1008.85 1008.22 1008.45 1009.22 1009.81 1009.20 1008.99 1009.14 1008.31 1008.81 1009.51 1009.29 1009.77 1009.50 1008.66 1008.05 1006.96 1006.15 1005.75 1005.05 1004.60 1004.09 1004.32 1004.51
1018.07 1018.26 1017.51 1017.23 1017.49 1018.69 1019.72 1019.88 1019.10 1017.91 1017.65 1017.66 1017.06 1016.18 1015.14 1013.89 1012.41 1011.54 1011.01 1010.28 1009.79 1008.97 1008.39 1008.34 1008.70 1010.62 1010.38 1010.57 1009.79 1009.58 1009.01 1009.10 1009.20 1009.89 1009.62 1009.17 1008.76 1007.96 1007.56 1006.96 1006.50 1005.48 1004.62 1004.40 1004.21
1018.31 1018.67 1017.59 1017.57 1018.83 1019.71 1019.99 1019.58 1018.63 1017.59 1017.26 1017.19 1016.88 1016.15 1015.42 1014.41 1013.27 1012.24 1011.72 1011.13 1010.48 1009.67 1009.16 1008.94 1009.27 1010.35 1010.99 1010.98 1010.37 1009.80 1009.27 1009.14 1009.25 1009.85 1009.62 1009.21 1009.24 1008.38 1007.84 1007.36 1007.06 1006.24 1005.57 1005.15 1005.20
1018.68 1018.80 1017.75 1017.79 1019.28 1020.32 1020.28 1019.58 1018.67 1017.70 1017.13 1016.72 1016.53 1015.87 1015.42 1014.86 1014.11 1012.94 1012.30 1011.81 1011.18 1010.53 1010.17 1009.64 1009.89 1010.73 1011.19 1011.33 1011.21 1010.58 1010.13 1009.36 1009.23 1009.22 1009.24 1009.40 1009.33 1008.71 1008.30 1007.87 1007.61 1007.15 1007.11 1006.60 1006.48
1019.27 1019.95 1019.53 1019.33 1019.87 1020.14 1020.32 1019.71 1018.63 1017.56 1017.04 1016.68 1016.45 1015.60 1015.50 1015.14 1014.66 1013.91 1013.02 1012.36 1011.92 1011.47 1011.01 1010.41 1010.47 1010.54 1010.89 1010.97 1010.94 1010.70 1010.25 1009.88 1009.75 1009.48 1009.31 1009.21 1009.03 1009.14 1008.66 1008.65 1008.29 1008.01 1007.94 1007.71 1007.36
1019.54 1020.84 1021.06 1021.07 1020.96 1020.54 1020.12 1019.47 1018.66 1017.77 1017.19 1016.78 1016.52 1016.40 1016.12 1015.70 1015.19 1014.60 1014.00 1013.16 1012.50 1012.18 1011.64 1011.34 1011.40 1011.41 1011.40 1011.16 1010.95 1010.56 1010.29 1010.10 1009.97 1009.68 1009.58 1009.44 1009.55 1009.61 1009.50 1009.10 1008.91 1008.62 1007.94 1007.97 1008.14
1019.27 1020.30 1020.98 1021.00 1020.85 1020.54 1020.18 1019.71 1018.73 1017.99 1017.31 1017.15 1016.88 1016.74 1016.58 1016.40 1016.24 1015.66 1015.11 1014.43 1013.86 1012.83 1012.40 1012.13 1012.05 1012.03 1012.12 1011.71 1011.17 1010.85 1010.53 1010.39 1010.38 1010.35 1010.31 1009.94 1009.66 1009.41 1009.52 1009.49 1009.32 1009.29 1009.28 1009.29 1009.09
1018.51 1018.79 1019.20 1020.93 1020.89 1020.63 1020.16 1019.35 1018.72 1018.28 1017.71 1017.37 1017.27 1017.00 1017.09 1016.89 1016.72 1016.34 1015.98 1015.43 1014.58 1013.82 1013.16 1012.76 1012.65 1012.71 1012.91 1012.26 1011.47 1011.40 1011.07 1010.95 1010.69 1010.61 1010.54 1010.41 1010.35 1010.00 1009.77 1010.02 1010.37 1010.18 1010.34 1010.49 1010.40
Wind_Speed
11 11 11 13 11 12 11 12 12 12 13 12 12 11 10 12 12 3 9 8 6 12 10 9 4 3 1 4 3 4 2 5 7 7 4 5 2 1 2 8 1 5 8 10 18
12 12 12 12 12 13 12 12 11 12 12 11 11 10 9 10 4 10 11 16 16 13 4 5 6 7 4 4 5 5 5 9 5 3 1 5 5 6 2 6 1 2 3 21 20
12 13 15 15 14 13 13 11 10 11 11 11 10 10 5 6 4 6 9 11 21 15 6 3 9 12 7 4 6 6 7 5 4 1 4 4 7 5 4 5 7 10 15 24 20
14 15 15 15 14 13 13 11 11 11 11 11 9 9 3 0 4 4 3 17 8 7 5 4 7 7 13 11 5 6 9 6 3 3 4 4 8 9 6 7 8 15 24 24 21
15 16 15 14 13 13 13 13 12 11 12 11 9 7 3 3 9 8 17 12 4 1 9 8 10 9 13 12 11 14 7 10 8 3 3 3 5 6 10 8 7 14 19 24 21
16 16 16 15 15 15 14 14 13 12 12 12 10 7 4 12 5 6 8 6 5 1 3 8 4 8 15 10 21 11 9 4 4 2 4 5 7 5 7 5 12 17 19 19 22
18 19 19 18 16 16 14 13 13 13 12 12 10 5 10 17 4 5 3 2 2 5 5 5 8 8 9 10 10 9 13 14 14 3 3 2 11 9 14 8 13 15 17 18 18
16 16 16 16 15 14 13 13 14 13 12 12 10 3 11 4 9 15 14 14 10 5 5 6 7 6 8 12 10 13 12 14 19 16 7 5 15 9 5 10 12 13 12 16 17
15 15 12 9 9 10 11 13 14 14 12 12 7 5 8 1 4 9 7 9 5 7 6 7 4 7 3 13 10 18 11 26 18 26 17 16 4 16 9 9 12 13 13 15 14
14 13 11 7 4 5 10 14 13 9 4 2 1 2 5 6 4 4 8 10 7 3 2 8 6 7 11 12 15 15 24 20 23 18 26 22 13 11 5 8 14 15 14 13 16
12 12 10 8 6 6 5 4 6 3 3 8 8 7 2 3 4 9 5 3 6 7 12 8 11 16 25 19 19 14 16 24 14 12 20 30 20 16 10 6 8 11 15 16 18
9 10 10 9 7 6 2 2 4 2 10 12 20 18 18 15 11 8 6 6 10 15 15 5 21 23 16 14 20 25 18 18 7 14 18 20 27 20 15 12 11 15 16 19 14
9 10 11 10 9 2 1 2 3 3 4 6 5 6 4 3 7 7 7 9 8 15 20 20 10 17 16 18 17 23 17 17 9 11 10 4 13 17 15 13 9 15 20 18 20
8 11 12 15 3 2 1 4 3 3 3 6 3 3 1 3 7 6 12 7 7 18 10 14 15 12 14 17 17 14 14 14 15 15 11 13 12 22 20 13 12 14 17 16 18
9 11 12 10 2 2 3 2 3 2 4 4 3 3 3 6 9 2 6 8 6 12 7 8 12 18 15 20 18 15 15 13 11 13 6 13 9 16 17 27 22 14 15 18 20
9 11 10 2 2 2 1 3 1 1 8 8 4 5 7 6 2 3 7 3 5 6 6 8 2 14 12 11 25 15 15 5 9 10 9 13 11 11 21 20 23 10 14 19 19
10 12 5 1 3 2 2 2 2 2 4 10 6 9 9 6 4 3 8 9 5 6 5 6 13 6 12 17 15 19 14 4 6 6 6 13 11 17 6 17 17 22 17 18 19
11 14 4 3 2 1 3 6 3 4 5 4 7 16 5 4 4 3 2 6 6 3 4 9 8 15 7 11 14 23 13 6 7 7 3 5 11 13 13 18 8 12 19 19 20
10 3 2 2 4 3 4 5 6 5 3 7 13 5 4 3 5 4 3 3 3 8 5 6 1 4 1 2 4 10 6 4 6 3 4 5 2 7 7 11 13 9 10 17 19
2 2 2 2 4 3 6 3 3 4 2 1 3 3 5 8 7 6 7 4 3 1 3 3 5 4 6 5 3 2 6 5 2 6 4 2 3 6 5 8 7 7 10 12 11
3 3 3 3 4 6 4 5 4 7 4 3 3 5 6 7 6 5 7 4 9 7 6 4 2 2 1 1 4 4 5 3 5 1 4 3 2 4 7 6 9 10 8 8 12
3 2 2 2 6 1 1 3 4 3 3 3 4 4 4 6 5 4 6 7 14 8 5 6 3 4 3 1 4 3 2 4 6 6 2 1 1 6 6 7 7 8 9 3 3
2 2 2 3 4 1 1 4 3 3 3 1 3 4 2 4 5 6 5 9 12 9 8 5 3 3 2 3 3 1 3 2 4 2 4 4 4 5 6 8 8 8 8 7 8
4 2 5 4 1 7 3 3 3 3 3 2 3 5 2 3 3 6 8 5 9 8 12 3 2 2 2 4 2 3 4 1 2 2 5 2 4 7 9 8 9 8 7 7 7
3 2 5 1 4 2 3 3 1 3 2 5 1 8 7 4 4 6 6 6 4 10 6 4 3 3 4 3 2 2 4 6 3 2 2 3 4 1 3 8 6 6 7 8 8
5 5 2 2 1 1 2 3 1 3 2 3 3 4 5 3 5 5 7 5 4 6 5 4 1 2 4 4 5 3 4 6 5 2 4 3 1 3 4 4 8 8 8 8 8
1 2 5 3 1 4 4 4 1 2 1 2 4 3 5 4 4 8 8 10 5 6 6 4 3 3 3 3 4 5 3 1 2 2 0 2 2 4 5 8 8 8 9 9 9
Wind_Direction
318 323 321 316 317 311 313 310 310 315 311 310 310 310 323 320 327 279 253 229 223 277 331 315 266 253 343 224 159 111 145 206 203 170 236 7 314 94 144 134 219 172 156 161 154
320 324 319 313 312 310 309 306 309 309 305 306 306 309 322 335 293 271 236 237 238 252 295 292 247 189 210 232 195 165 173 204 203 209 130 350 18 313 145 147 42 63 59 142 149
322 321 314 309 307 303 300 302 306 306 308 306 301 309 317 338 320 248 32 255 230 233 233 245 281 245 204 191 207 189 197 198 241 139 9 327 330 299 180 247 194 179 151 157 158
324 319 311 306 306 299 303 306 301 306 306 307 303 309 311 243 267 201 68 22 54 197 228 264 255 251 206 207 200 181 206 172 243 71 19 330 307 314 225 232 157 158 160 160 168
320 312 305 301 296 293 298 296 303 301 302 303 301 309 115 237 244 299 304 312 323 248 199 215 271 263 269 200 200 223 184 218 238 0 320 310 286 255 279 271 130 146 164 171 173
309 301 297 289 285 287 288 292 295 297 296 298 295 296 231 258 241 259 270 291 208 226 231 193 228 286 292 253 199 175 222 195 203 242 316 292 276 158 271 129 143 157 175 176 176
306 301 293 284 280 280 283 287 289 290 288 290 286 274 248 238 236 247 351 270 191 183 207 202 206 212 323 267 264 175 201 230 241 235 266 16 287 201 236 162 162 176 179 181 181
321 317 300 283 275 275 279 282 284 283 282 283 275 258 258 230 235 255 254 271 270 246 239 240 203 240 243 300 316 216 198 208 216 224 241 175 257 249 252 159 187 180 182 186 187
339 333 327 306 276 273 281 283 280 279 277 273 259 192 255 116 219 255 186 215 226 261 219 252 196 211 229 235 259 200 208 210 209 194 205 201 244 261 196 192 181 186 190 191 185
351 352 11 21 352 307 294 289 283 286 298 76 48 281 227 230 187 208 208 207 204 209 233 193 214 220 222 213 220 213 208 204 204 193 198 230 241 262 269 195 190 190 189 193 196
352 359 9 14 1 337 346 349 20 357 220 205 197 242 327 219 217 211 125 155 167 195 203 187 209 218 220 220 237 279 241 216 213 183 201 216 239 260 258 226 208 195 189 194 203
359 357 359 353 341 323 45 21 128 236 292 244 255 262 268 275 278 235 161 203 179 213 198 203 217 217 228 230 228 252 271 214 170 190 194 212 228 243 246 245 201 198 201 204 189
348 345 345 336 309 344 135 132 137 111 284 287 218 236 281 209 246 256 179 196 202 204 199 208 216 210 216 231 225 248 255 210 154 186 201 126 233 240 245 238 223 207 205 203 190
327 336 338 337 58 335 164 178 139 124 285 280 231 228 292 280 260 219 195 201 218 208 208 221 219 195 212 238 203 251 246 199 173 158 204 192 240 228 235 242 225 205 209 198 192
305 321 330 339 224 295 152 203 159 167 353 262 280 140 212 242 313 217 190 176 230 165 160 211 193 198 222 223 201 241 219 216 179 177 134 194 226 243 211 224 228 209 203 195 192
294 306 328 5 330 234 164 115 145 24 262 328 301 330 307 274 236 292 188 185 154 189 246 218 86 200 226 237 206 231 166 162 190 191 220 202 213 214 217 218 219 201 196 196 195
301 300 308 158 238 184 106 91 15 179 338 311 327 324 310 277 293 250 181 175 210 186 185 177 215 250 233 200 190 221 189 146 189 185 216 170 212 240 226 216 213 212 199 197 198
310 313 279 204 178 101 67 52 50 242 267 340 316 311 276 283 243 241 257 197 203 128 161 201 215 192 218 185 183 206 183 162 172 183 154 134 234 244 226 256 253 237 207 196 197
331 342 319 294 158 81 79 60 197 232 262 313 313 299 297 303 294 328 319 277 279 188 234 169 141 275 65 47 150 156 205 126 89 9 97 212 299 286 252 238 229 235 204 207 197
21 6 276 307 107 79 78 174 234 219 263 324 290 339 305 319 323 339 340 342 340 251 251 243 102 13 347 51 2 173 119 162 118 166 188 269 283 253 333 319 262 229 207 200 196
66 59 267 45 67 51 133 222 244 233 203 219 288 287 292 303 306 318 350 1 354 329 355 329 41 50 219 360 163 149 154 80 86 149 199 143 292 265 284 304 304 292 223 209 199
101 49 282 105 59 93 131 202 257 303 165 251 256 278 277 296 307 314 340 343 339 327 354 3 68 73 66 348 353 345 161 140 193 187 186 111 301 330 350 340 334 360 345 47 58
112 246 319 108 126 188 273 288 274 345 299 248 280 266 204 297 315 0 347 345 352 15 4 359 32 94 52 30 36 131 311 76 93 72 183 150 158 347 13 4 354 24 11 27 34
92 58 331 49 177 127 151 293 305 279 280 321 344 311 325 307 312 333 342 349 350 357 352 350 35 27 102 114 136 173 161 161 89 144 144 196 161 4 6 12 9 16 35 21 54
42 213 184 238 324 106 169 202 271 5 329 15 326 11 341 324 314 345 344 321 345 356 352 28 48 43 46 54 50 20 164 170 147 74 169 150 177 224 356 11 3 2 25 39 36
138 137 132 186 218 98 354 272 191 296 25 358 342 323 342 6 345 322 339 358 339 328 353 332 62 21 18 30 56 61 27 178 198 194 269 316 60 180 160 38 10 25 16 29 34
211 61 104 296 101 98 224 209 209 268 223 86 321 317 327 289 278 278 298 298 290 324 343 359 6 21 313 344 33 38 2 219 109 20 170 254 358 309 324 43 20 15 38 26 13